Weather History for Farmington, NM

Change the Weather History Date:

Monday, November 12, 2012

  Actual Average Record
Temperature  
Mean Temperature 28 °F -  
Max Temperature 41 °F 52 °F 70 °F (1980)
Min Temperature 16 °F 27 °F 16 °F (2012)
Degree Days  
Heating Degree Days 36    
Moisture  
Dew Point 10 °F    
Average Humidity 48    
Maximum Humidity 78    
Minimum Humidity 11    
Precipitation  
Precipitation 0.00 in - - ()
Sea Level Pressure  
Sea Level Pressure 30.51 in    
Wind  
Wind Speed 3 mph (ESE)    
Max Wind Speed 7 mph    
Max Gust Speed -    
Visibility 10 miles    
Events      
Averages and records for this station are not official NWS values.
T = Trace of Precipitation, MM = Missing Value Source: NWS Daily Summary

Daily Weather History Graph

Daily Weather History Graph

Search for Another Location

Airport:

Trip Planner

Search our weather history database for the weather conditions in past years. The results will help you decide how hot, cold, wet, or windy it might be!

Date:

Astronomy

Nov. 12, 2012 Rise Set
Actual Time 6:48 AM MST 5:05 PM MST
Civil Twilight 6:20 AM MST 5:32 PM MST
Nautical Twilight 5:49 AM MST 6:04 PM MST
Astronomical Twilight 5:19 AM MST 6:34 PM MST
Moon 5:18 AM MST (11/12) 4:12 PM MST (11/12)
Length of Visible Light 11h 11m
Length of Day
10h 17m
Waning Crescent, 2% of the Moon is Illuminated
Nov 12
Waning Crescent
Nov 13
New
Nov 20
First Quarter
Nov 28
Full
Dec 6
Last Quarter

Hourly Weather History & Observations

Time (MST) Temp. Windchill Dew Point Humidity Pressure Visibility Wind Dir Wind Speed Gust Speed Precip Events Conditions
12:53 AM 21.9 °F 15.7 °F 10.0 °F 60% 30.48 in 10.0 mi West 4.6 mph - N/A   Clear
1:53 AM 21.0 °F - 9.0 °F 60% 30.50 in 10.0 mi Calm Calm - N/A   Clear
2:53 AM 19.9 °F - 10.0 °F 65% 30.51 in 10.0 mi Calm Calm - N/A   Clear
3:53 AM 21.9 °F - 9.0 °F 58% 30.51 in 10.0 mi Calm Calm - N/A   Clear
5:53 AM 18.0 °F 8.7 °F 10.0 °F 71% 30.57 in 10.0 mi East 6.9 mph - N/A   Clear
6:53 AM 17.1 °F 8.7 °F 9.0 °F 71% 30.61 in 10.0 mi East 5.8 mph - N/A   Clear
7:53 AM 21.0 °F 14.6 °F 10.9 °F 65% 30.61 in 10.0 mi East 4.6 mph - N/A   Clear
8:53 AM 24.1 °F 19.7 °F 10.9 °F 57% 30.62 in 10.0 mi ESE 3.5 mph - N/A   Clear
9:53 AM 27.0 °F 21.6 °F 12.0 °F 53% 30.61 in 10.0 mi ESE 4.6 mph - N/A   Clear
10:53 AM 32.0 °F 28.7 °F 10.0 °F 40% 30.57 in 10.0 mi Variable 3.5 mph - N/A   Clear
11:53 AM 34.0 °F - 7.0 °F 32% 30.53 in 10.0 mi Calm Calm - N/A   Clear
12:53 PM 37.0 °F 32.4 °F 3.9 °F 25% 30.49 in 10.0 mi SSE 5.8 mph - N/A   Clear
1:53 PM 37.9 °F - 3.0 °F 23% 30.47 in 10.0 mi Calm Calm - N/A   Clear
2:53 PM 39.0 °F 36.8 °F 5.0 °F 24% 30.45 in 10.0 mi South 3.5 mph - N/A   Clear
3:53 PM 39.9 °F 37.8 °F 6.1 °F 25% 30.43 in 10.0 mi SSE 3.5 mph - N/A   Clear
4:53 PM 37.9 °F 35.5 °F 7.0 °F 28% 30.43 in 10.0 mi SSW 3.5 mph - N/A   Clear
5:53 PM 35.1 °F 32.2 °F 7.0 °F 31% 30.45 in 10.0 mi SW 3.5 mph - N/A   Clear
6:53 PM 34.0 °F - 6.1 °F 31% 30.46 in 10.0 mi Calm Calm - N/A   Clear
7:53 PM 27.0 °F 20.5 °F 15.1 °F 61% 30.48 in 10.0 mi NNE 5.8 mph - N/A   Clear
8:53 PM 26.1 °F 20.5 °F 15.1 °F 63% 30.48 in 10.0 mi North 4.6 mph - N/A   Clear
9:53 PM 24.1 °F 19.7 °F 16.0 °F 71% 30.47 in 10.0 mi ENE 3.5 mph - N/A   Clear
10:53 PM 23.0 °F 14.7 °F 15.1 °F 72% 30.46 in 10.0 mi ENE 6.9 mph - N/A   Clear
11:53 PM 21.9 °F 14.5 °F 16.0 °F 78% 30.45 in 10.0 mi NE 5.8 mph - N/A   Clear